This is the latest recevied weather packets stored in our database for station/object KF7U. If no packets are shown the sender has not sent any weather packets the latest 1 day(s).
| Time | Temp. | Humidity | Pressure | Rain* | Wind** | Luminosity | Snow |
|---|---|---|---|---|---|---|---|
| 1778100755 | 27.78° C | 22% | 1012.9 hPa | 0 mm | - | - | - |
| 1778098655 | 26.67° C | 23% | 1013.2 hPa | 0 mm | - | - | - |
| 1778098355 | 27.22° C | 23% | 1013.2 hPa | 0 mm | - | - | - |
| 1778096555 | 26.11° C | 24% | 1013.5 hPa | 0 mm | - | 1109 W/m² | - |
| 1778096254 | 26.67° C | 25% | 1013.5 hPa | 0 mm | - | 1110 W/m² | - |
| 1778095655 | 26.11° C | 25% | 1013.9 hPa | 0 mm | - | - | - |
| 1778094456 | 26.11° C | 25% | 1013.9 hPa | 0 mm | - | 1110 W/m² | - |
| 1778092955 | 25° C | 27% | 1014.2 hPa | 0 mm | - | - | - |
| 1778092355 | 26.11° C | 25% | 1014.2 hPa | 0 mm | - | - | - |
| 1778092058 | 25° C | 27% | 1014.6 hPa | 0 mm | - | - | - |
| 1778091456 | 24.44° C | 27% | 1014.6 hPa | 0 mm | - | - | - |
| 1778090855 | 24.44° C | 27% | 1014.6 hPa | 0 mm | - | - | - |
| 1778090555 | 24.44° C | 28% | 1014.6 hPa | 0 mm | - | - | - |
| 1778089355 | 24.44° C | 29% | 1014.9 hPa | 0 mm | - | 962 W/m² | - |
| 1778088455 | 24.44° C | 29% | 1014.6 hPa | 0 mm | - | 926 W/m² | - |
| 1778088155 | 24.44° C | 29% | 1014.9 hPa | 0 mm | - | 913 W/m² | - |
| 1778087255 | 23.89° C | 29% | 1014.9 hPa | 0 mm | - | 863 W/m² | - |
| 1778086655 | 23.89° C | 30% | 1014.6 hPa | 0 mm | - | 882 W/m² | - |
| 1778086055 | 23.33° C | 30% | 1014.6 hPa | 0 mm | - | 844 W/m² | - |
| 1778085755 | 23.89° C | 31% | 1014.6 hPa | 0 mm | - | 825 W/m² | - |
| 1778084855 | 22.78° C | 32% | 1014.6 hPa | 0 mm | - | 761 W/m² | - |
| 1778084255 | 22.78° C | 32% | 1014.6 hPa | 0 mm | - | 720 W/m² | - |
| 1778082755 | 21.67° C | 34% | 1014.6 hPa | 0 mm | - | 651 W/m² | - |
| 1778082455 | 21.67° C | 34% | 1014.6 hPa | 0 mm | - | 626 W/m² | - |
| 1778081256 | 21.11° C | 36% | 1014.6 hPa | 0 mm | - | 530 W/m² | - |
* Rain latest hour (hover to see other rain measurements)
** Current wind speed in m/s (hover to see current wind gust speed)